Regional Weather Roundup
Issued by NWS

Home | Current Version | Previous Version | Graphics & Text | Print | Product List | Glossary Off
Versions: 1 2 3 4 5 6 7 8 9 10 11 12 13 14 15 16 17 18 19 20 21 22 23 24 25 26 27 28 29 30 31 32 33 34 35 36 37 38 39 40 41 42 43 44 45 46 47 48 49 50

368
ASUS43 KTOP 211408
RWRKS

WEATHER ROUNDUP FOR KANSAS
NATIONAL WEATHER SERVICE GOODLAND KS
800 AM CST TUE FEB 21 2017

NOTE:  "FAIR" INDICATES FEW OR NO CLOUDS BELOW 12,000 FEET WITH NO
SIGNIFICANT WEATHER AND/OR OBSTRUCTIONS TO VISIBILITY.

KSZ001>006-013>018-027>032-041>047-211500-
NORTHWEST KANSAS

CITY           SKY/WX    TMP DP  RH WIND       PRES   REMARKS
GOODLAND       CLOUDY    37  15  40 SW9       30.01R
HAYS           CLOUDY    32  26  78 S3        30.05R
HILL CITY      CLOUDY    32  24  72 W3        30.03S
RUSSELL        CLOUDY    31  27  85 SW6       30.03R
$$

KSZ061>065-074>080-084>089-211500-
SOUTHWEST KANSAS

CITY           SKY/WX    TMP DP  RH WIND       PRES   REMARKS
DODGE CITY     CLOUDY    37  21  52 SW9       30.08R
ELKHART          N/A     40  13  33 SW9         N/A
GARDEN CITY    CLOUDY    34  18  52 W7        30.06S
GREAT BEND     CLOUDY    32  28  85 CALM      30.05S
LIBERAL        CLOUDY    34  16  47 W8        30.07S
PRATT          CLOUDY    32  28  84 NW5       30.06S
$$

KSZ066>073-081>083-090>101-211500-
SOUTHEAST KANSAS

CITY           SKY/WX    TMP DP  RH WIND       PRES   REMARKS
CHANUTE        CLEAR     45  43  93 N5        29.96S
COFFEYVILLE    CLEAR     45  43  93 CALM      29.96R
HUTCHINSON     CLOUDY    37  33  85 NW10      30.04R WCI  30
MEDICINE LODGE   N/A     34  31  88 NW5       30.05R
NEWTON         CLEAR     39  37  92 NW7       30.03R
PARSONS        CLEAR     48  45  89 CALM      29.96R
WICHITA INTL   PTCLDY    43  38  82 NW9       30.02R
WICHITA JABRA  CLEAR     41  38  89 NW8       30.02R
WICHITA MCCONL CLEAR     43  38  82 N10       30.01R
WINFIELD       CLEAR     44  41  89 N7        30.01R
$$

KSZ007>012-019>026-033>040-048>060-102>105-211500-
NORTHEAST KANSAS

CITY           SKY/WX    TMP DP  RH WIND       PRES   REMARKS
CONCORDIA      CLOUDY    39  35  86 W10       30.03R WCI  32
EMPORIA        CLEAR     42  40  92 NW6       30.00R
LAWRENCE       CLEAR     41  41 100 W7        30.00R
MANHATTAN      FOG       33  31  92 SW5       30.03R VSB 1/4
MARYSVILLE     CLOUDY    32  32 100 CALM      30.03R
OLATHE IND     CLOUDY    44  42  93 NW7       29.98R
OLATHE EXE     PTCLDY    49  46  90 N8        29.96R
SALINA         CLOUDY    35  31  85 NW5       30.05R
TOPEKA BILLARD CLEAR     41  39  93 SW3       30.00R
TOPEKA FORBES  CLEAR     41  38  89 NW8       30.00R
$$




USA.gov is the U.S. government's official web portal to all federal, state and local government web resources and services.